Location: Bonny Doon Airfield
(37.0704°N, 122.1252°W)
Time: 10:41:28
(UTC-08:00)

Vanguard 1 Rocket - Pass Details

Date: 27 October 2017
Orbit: 655 x 4222 km, 34.3° (Epoch: 23 November)

Event Time Altitude Azimuth Distance (km) Brightness Sun altitude
Rises 04:54:10 0° 229° (SW) 7,490 - -31.2°
Reaches altitude 10° 05:00:14 10° 225° (SW) 5,935 - -30.0°
Exits shadow 05:05:14 20° 218° (SW) 4,589 10.6 -29.0°
Maximum altitude 05:14:59 45° 160° (SSE) 2,431 9.5 -27.1°
Drops below altitude 10° 05:22:52 10° 90° (E) 3,259 11.3 -25.5°
Sets 05:25:11 0° 83° (E) 3,937 12.1 -25.1°
